SL-3 R/B

Satellite information

Favourite Embed

Satellite Type and Status

ROCKET BODYIN ORBIT

Key statistics

Satellite SL-3 R/B at a glance.

Uptime

19306

Days in orbit

Revolutions

≈ 14.0

Per day

Orbit

LEO

Low Earth Orbit

Inclination

81.2

Latest

Satellite identification and parameters

Extended collection of information and parameters for SL-3 R/B.

Object identification

Identified? True

Debris? False

Object name: SL-3 R/B

International designator: 1972-049B

Object number (NORAD): 6080

Object ID (CCSDS): 6080

Country: COMMONWEALTH OF INDEPENDENT STATES (CIS)

Current information (Y/N): Y

RCS size: LARGE

Orbital parameters

Period: 102.766 minutes

Inclination: 81.2365 deg

SMA: 7267.657 km

Apoapsis: 925.796 km

Periapsis: 853.248 km

RAAN: 101.9507 deg

Eccentricy: 0.0049912

Argument of periapsis: 115.0118 deg

Mean anomaly: 245.6243 deg

Mean motion: 14.0123547 rev/day

Mean motion (dot): 0.00000155 rev/day2

B* drag term: 0.000093558 1/REarth

Two-line elements (TLE)

Creation date: May 8, 2025, 3:01 a.m.

Reference frame: TEME

Reference center: EARTH

Epoch: May 7, 2025, 9:08 p.m. UTC

TLE line 0: 0 SL-3 R/B

TLE line 1: 1 06080U 72049B 25127.88073995 .00000155 00000-0 93558-4 0 9997

TLE line 2: 2 06080 81.2365 101.9507 0049912 115.0118 245.6243 14.01235470700433

Live tracking on map

Real-time ground track for satellite SL-3 R/B.

In-orbit conjunctions

A list of the most updated potential collisions computed for object SL-3 R/B.

Target Orbit TCA Probability of collision Miss distance Type
THOR ABLESTAR DEB LEO 2025-05-05 17:08:08 0.0002095276 839.0 (m) DEBRIS
CZ-6A DEB SSO 2025-02-03 14:35:01 0.0001233616 207.0 (m) DEBRIS
CZ-6A DEB SSO 2025-01-04 19:03:51 0.0003499788 121.0 (m) DEBRIS
CZ-4 DEB SSO 2024-11-30 09:54:13 0.0001011675 241.0 (m) DEBRIS
CZ-11 DEB SSO 2024-10-26 20:22:58 0.0001940493 361.0 (m) DEBRIS

Associated space launch

The Meteor-1 series was the first series of Soviet meteorological satellites.

SL-3 R/B was lifted into orbit during the mission ‘Vostok 8A92M | Meteor-1 12 (26L)’, on board a Vostok 8A92M space rocket.

The launch took place on June 30, 1972, 6:52 p.m. from 41/1.

For more information about the launch, click the button.

Launch to space Vostok 8A92M | Meteor-1 12 (26L)
Vostok 8A92M | Meteor-1 12 (26L)

Agency: N/A

Status: Launch Successful

Launch date: June 30, 1972, 6:52 p.m. UTC

Rocket: Vostok 8A92M

Launch pad: 41/1

Location: Plesetsk Cosmodrome, Russian Federation

...

Latest news about this satellite

There are no fresh news available about this satellite. Check back as we update our databases every day.


Newsletter sign-up

Weekly statistics, charts and insights to help you stay on top of the space industry.